Total_Precipitation_Accumulation
1.43 1.34 1.29 1.14 1.03 0.87 0.72 0.70 0.75 0.67 0.64 0.60 0.50 0.45 0.44 0.39 0.34 0.32 0.33 0.36 0.39 0.59 0.78 0.89 0.89 0.86 0.87 0.89 0.91 0.91 0.83 0.76 0.72 0.69 0.62 0.57 0.57 0.55 0.55 0.52 0.49 0.47 0.49
1.59 1.50 1.38 1.22 1.12 0.99 0.82 0.71 0.72 0.76 0.74 0.72 0.64 0.56 0.54 0.48 0.39 0.37 0.35 0.38 0.42 0.50 0.67 0.78 0.87 0.97 1.06 1.07 1.08 1.06 0.97 0.87 0.82 0.78 0.75 0.70 0.65 0.63 0.61 0.58 0.55 0.54 0.54
1.72 1.67 1.52 1.31 1.20 1.17 1.05 0.93 0.88 0.88 0.82 0.71 0.62 0.61 0.59 0.53 0.46 0.43 0.40 0.39 0.40 0.44 0.57 0.72 0.79 0.92 1.12 1.21 1.23 1.21 1.10 0.95 0.90 0.86 0.81 0.77 0.74 0.72 0.75 0.75 0.68 0.61 0.58
1.87 1.86 1.72 1.50 1.49 1.54 1.40 1.19 1.05 0.96 0.87 0.78 0.68 0.66 0.61 0.56 0.49 0.47 0.46 0.42 0.39 0.41 0.53 0.70 0.75 0.85 1.00 1.15 1.28 1.33 1.28 1.16 1.06 0.98 0.91 0.85 0.81 0.79 0.83 0.85 0.83 0.76 0.75
1.88 1.85 1.80 1.71 1.73 1.75 1.66 1.46 1.30 1.19 1.02 0.92 0.85 0.82 0.80 0.74 0.66 0.58 0.53 0.53 0.50 0.51 0.64 0.79 0.83 0.85 0.86 0.94 1.10 1.24 1.29 1.25 1.13 1.03 0.97 0.91 0.86 0.85 0.88 0.91 0.89 0.86 0.84
1.85 1.82 1.74 1.80 1.86 1.82 1.75 1.69 1.51 1.38 1.27 1.19 1.11 0.98 0.95 0.93 0.83 0.68 0.59 0.58 0.59 0.63 0.73 0.79 0.81 0.85 0.83 0.75 0.83 1.04 1.21 1.28 1.21 1.10 1.03 0.97 0.93 0.93 0.95 0.98 0.99 0.97 0.94
2.10 2.00 1.81 1.82 1.91 1.79 1.68 1.73 1.76 1.70 1.59 1.47 1.40 1.21 1.08 1.00 0.91 0.72 0.60 0.59 0.62 0.66 0.70 0.75 0.78 0.70 0.62 0.58 0.62 0.74 0.95 1.15 1.22 1.20 1.12 1.04 1.02 1.04 1.07 1.12 1.14 1.13 1.14
2.13 2.12 2.08 1.98 2.04 2.04 1.94 1.83 1.83 1.86 1.78 1.72 1.68 1.59 1.37 1.18 0.95 0.77 0.66 0.61 0.63 0.68 0.69 0.68 0.66 0.66 0.58 0.53 0.50 0.55 0.72 0.98 1.15 1.26 1.25 1.19 1.14 1.17 1.22 1.29 1.32 1.28 1.30
2.19 2.12 2.14 2.17 2.16 2.17 2.08 1.97 1.87 1.85 1.87 1.80 1.74 1.84 1.57 1.22 0.96 0.84 0.72 0.66 0.64 0.66 0.69 0.70 0.67 0.64 0.60 0.57 0.54 0.54 0.59 0.75 1.02 1.32 1.52 1.53 1.46 1.43 1.44 1.50 1.53 1.52 1.46
2.24 2.21 2.16 2.15 2.20 2.16 2.09 2.10 2.07 1.92 1.92 1.92 1.85 1.72 1.52 1.26 1.16 1.01 0.86 0.79 0.72 0.68 0.68 0.68 0.66 0.63 0.63 0.62 0.60 0.63 0.66 0.72 0.93 1.27 1.60 1.76 1.74 1.72 1.78 1.87 1.93 1.89 1.77
2.23 2.16 2.16 2.14 2.11 2.12 2.11 2.13 2.13 2.10 2.01 1.95 1.88 1.79 1.72 1.51 1.31 1.25 1.09 0.96 0.93 0.84 0.76 0.74 0.72 0.70 0.66 0.66 0.64 0.69 0.76 0.80 0.95 1.20 1.49 1.72 1.87 1.95 2.03 2.11 2.17 2.15 2.03
2.21 2.09 2.07 2.05 2.03 2.03 2.03 2.10 2.15 2.18 2.12 2.00 1.90 1.75 1.69 1.61 1.44 1.39 1.26 1.07 1.05 0.96 0.91 0.86 0.81 0.80 0.80 0.80 0.81 0.95 0.93 0.96 1.05 1.19 1.45 1.70 1.86 1.96 2.11 2.26 2.34 2.33 2.26
2.29 2.05 2.00 2.02 2.03 1.98 2.02 2.15 2.22 2.19 2.18 2.11 2.03 1.92 1.78 1.62 1.53 1.56 1.53 1.32 1.16 1.02 1.00 0.98 0.93 0.90 0.91 0.95 1.00 1.15 1.10 1.12 1.15 1.24 1.49 1.76 1.83 1.85 1.90 2.03 2.23 2.30 2.31
2.35 2.25 2.14 2.09 2.10 2.10 2.06 2.08 2.10 2.07 2.09 2.07 2.00 1.92 1.84 1.71 1.66 1.66 1.66 1.72 1.60 1.30 1.14 1.06 0.99 1.00 1.04 1.10 1.22 1.32 1.17 1.26 1.21 1.21 1.36 1.55 1.61 1.60 1.63 1.77 2.02 2.18 2.19
2.06 2.22 2.21 2.13 2.05 2.04 2.05 2.06 2.01 1.92 1.92 1.94 1.92 1.86 1.77 1.63 1.62 1.61 1.62 1.70 1.85 1.68 1.29 1.01 0.96 0.96 1.02 1.07 1.23 1.19 1.10 1.27 1.28 1.21 1.22 1.24 1.26 1.26 1.26 1.33 1.49 1.71 1.81
1.65 1.81 1.98 2.02 1.99 1.94 1.92 1.97 1.96 1.87 1.85 1.74 1.70 1.74 1.70 1.59 1.51 1.51 1.57 1.63 1.71 1.78 1.52 1.04 0.90 0.91 0.99 1.04 1.18 1.06 1.02 1.22 1.21 1.18 1.14 1.10 1.10 1.09 1.08 1.10 1.17 1.32 1.44
1.44 1.52 1.64 1.73 1.78 1.81 1.81 1.81 1.79 1.78 1.78 1.69 1.61 1.57 1.54 1.52 1.55 1.51 1.51 1.57 1.64 1.71 1.66 1.21 0.98 0.98 1.08 1.11 1.13 1.06 0.99 1.00 1.02 1.18 1.12 1.07 1.03 1.00 0.99 1.01 1.03 1.09 1.16
1.25 1.27 1.34 1.41 1.46 1.48 1.50 1.54 1.56 1.58 1.59 1.60 1.53 1.49 1.45 1.43 1.45 1.45 1.50 1.52 1.55 1.58 1.61 1.41 1.12 1.01 1.02 1.04 1.05 1.05 1.00 0.95 0.90 1.09 1.09 1.06 1.03 0.97 0.94 0.93 0.97 1.00 1.01
1.27 1.19 1.15 1.19 1.22 1.24 1.25 1.27 1.29 1.32 1.34 1.36 1.40 1.41 1.38 1.41 1.45 1.42 1.42 1.40 1.37 1.37 1.42 1.41 1.21 1.01 0.95 0.95 1.01 1.01 0.97 0.93 0.86 0.93 1.00 1.05 1.05 1.02 1.00 0.97 1.00 0.99 0.95
1.20 1.22 1.12 1.04 1.05 1.09 1.13 1.16 1.17 1.18 1.21 1.25 1.29 1.33 1.34 1.35 1.34 1.34 1.39 1.37 1.33 1.31 1.30 1.33 1.26 1.13 1.05 1.01 1.07 1.10 1.08 1.00 0.95 0.88 0.95 0.98 1.06 1.06 0.99 0.92 0.89 0.92 0.93
1.07 1.14 1.13 1.06 1.00 1.01 1.05 1.09 1.11 1.13 1.14 1.17 1.20 1.22 1.27 1.38 1.42 1.37 1.34 1.33 1.35 1.41 1.41 1.43 1.35 1.20 1.06 1.01 1.01 0.98 1.02 1.03 1.04 0.99 0.98 0.93 0.87 0.84 0.85 0.87 0.87 0.89 0.94
0.99 1.08 1.12 1.12 1.09 1.10 1.29 1.27 1.17 1.15 1.16 1.15 1.13 1.10 1.11 1.19 1.22 1.27 1.27 1.25 1.32 1.43 1.54 1.54 1.38 1.14 0.94 0.85 0.84 0.91 1.04 1.13 1.10 0.88 0.85 0.89 0.86 0.86 0.81 0.77 0.89 0.90 0.91
1.03 1.12 1.19 1.22 1.21 1.25 1.39 1.30 1.26 1.13 1.11 1.12 1.09 1.04 1.00 0.98 1.03 0.95 1.04 1.11 1.13 1.24 1.29 1.20 1.11 0.94 0.84 0.82 0.94 1.06 1.05 1.05 0.94 0.80 0.87 0.97 0.93 0.93 0.84 0.84 0.93 0.87 0.88
1.22 1.29 1.36 1.39 1.38 1.37 1.38 1.29 1.29 1.10 1.01 0.98 0.93 0.86 0.83 0.79 0.80 0.86 0.90 0.98 0.93 0.90 0.91 0.87 0.84 0.80 0.78 0.83 0.99 1.15 1.18 1.19 1.04 0.92 0.90 1.01 0.90 0.87 0.85 0.84 0.93 0.88 0.88
1.34 1.31 1.31 1.31 1.29 1.25 1.25 1.18 1.13 0.99 0.93 0.87 0.79 0.74 0.73 0.69 0.80 0.93 0.92 0.94 0.82 0.74 0.81 0.89 0.95 0.95 1.01 1.02 1.03 1.21 1.37 1.47 1.33 1.00 0.84 0.89 0.84 0.79 0.84 0.84 0.85 0.89 0.86
1.11 1.06 1.03 1.01 0.99 0.95 0.99 0.97 0.97 0.89 0.85 0.78 0.72 0.70 0.78 0.75 0.86 0.94 0.86 0.85 0.81 0.70 0.70 0.78 0.84 0.88 0.87 0.93 1.03 1.01 1.18 1.49 1.39 1.10 0.74 0.81 0.88 0.95 1.16 0.89 0.76 0.76 0.78